Погода в Нозовке

Погода в Нозовке : погода сейчас, прогноз погоды и архив. Всё, что Вы хотите узнать о погоде в Нозовке!

Поиск расширенной информации на нашем сайте:

Полезная информация: Алфавитный перечень дезсредств.

Другие новости

Новости СМИ2

Главная страница сайта

Новости сайта

02.10.2013

Напоминаем, что на нашем новом сайте вы можете получить высокодетализированные прогнозы погоды по пунктам России, СНГ и мира (включающие важные для авиации метеовеличины, такие как направление и скорость ветра, видимость, явления погоды, количество и форма облачности, нижняя и верхняя граница облачности), а также ознакомиться с разнообразными материалами по авиационной метеорологии и подборкой полезных ссылок на эту тему.

Сайт Метеоцентр.Азия посвящён разработке технологий оптимизации авиаметеорологического обслуживания, включая проектирование и перспективное создание нескольких автоматизированных авиаметеорологических систем:
- система выпуска высокодетальных прогностических карт явлений погоды для нижнего воздушного пространства по России и ближнему зарубежью;
- система верификации прогнозов TAF (выпускаемых синоптиками официальных АМСГ РФ и ближнего зарубежья) и AUTOTAF (выпускаемых сайтом Метеоцентр.Азия) - выявление ошибок, онлайн-сопоставление с фактической погодой METAR, автоматическое внесение коррективов в прогнозы при резком отклонении фактической погоды от прогноза, подсчёт оправдываемости прогнозов по элементам и в целом;
- система обработки, анализа и отображения авиаметеорологической информации для применения провайдерами метеорологической информации.

Рекомендуем: Купить clean point можно выгодно!

Погода в Нозовке - сегодня

Время (UTC), дата Ветер
(°,м/с) 
Видим.   Явления Облачность Т
(°С)
Тd
(°С)
f(%) Тe
(°С)
Pmin
(гПа)
dP
(гПа)
Po
(мм)
O2
(г/м3)
Тmin Tmax R s Состояние
почвы
03 18.01.17 050 (СВ) 20000 м    4/4 2000 м средняя 
[Ac und]
-20.2 -22.6 81 -23  1032.4  -1.7  761  333  -21.7      55  равномерный
сухой снег
100% 
06 18.01.17 тихо ()   4000 м  слаб. снег  10/10 2000 м 
[Ns]
-16.6 -19.2 80 -17  1031.6  -0.5  760  328           
09 18.01.17 120 (ЮВ) 20000 м  {снег}  4/4 2000 м средняя 
[Ac und]
-12.7 -15.6 79 -15  1030.2  -1.1  760  322           
12 18.01.17 220 (ЮЗ) 20000 м  {снег}  9/6 600 м средняя 
[Sc|Ac und]
-13.3 -15.8 81 -13  1029.3  -1  759  323           
15 18.01.17 200 (Ю) 20000 м    3/3 2000 м средняя 
[Ac und]
-17 -19 84 -17  1028.6  -0.9  758  327    -12  0.0     
18 18.01.17 210 (ЮЗ) 4000 м  слаб. снег  10/10 300 м 
[Ns]
-17.3 -19.3 84 -20  1027.6  -1  757  327           
21 18.01.17 250 (З) 20000 м  {снег}  4/4 2000 м средняя 
[Ac und]
-19 -21.2 83 -19  1027.2  -0.6  757  329           
00 19.01.17 250 (З) 20000 м  {снег}  3/3 2000 м средняя 
[Ac und]
-20.1 -22.5 81 -20  1026.9  -0.3  757  331           
03 19.01.17 тихо ()   20000 м    5/5 2000 м средняя 
[Ac und]
-21.6 -24.3 79 -22  1026.2  -0.8  756  333  -21.7    0.0  55  равномерный
сухой снег
100% 
06 19.01.17 180 (Ю) 2000 м  снег  10/10 300 м 
[Ns]
-17.8 -20.3 81 -18  1025.3  -0.6  756  327           
09 19.01.17 240 (ЮЗ) 4000 м  слаб. снег  10/10 300 м 
[Ns]
-14.4 -17 81 -14  1023.4  -1.6  754  322           
12 19.01.17 200 (Ю) 4000 м  слаб. снег  10/10 300 м 
[Ns]
-12.9 -15.4 81 -16  1021.1  -2.2  753  320           
15 19.01.17 210 (ЮЗ) 4000 м  слаб. снег  10/10 300 м 
[Ns]
-12.1 -14.4 83 -15  1018.3  -2.6  751  318    -12.1  0.7     
18 19.01.17 210 (ЮЗ) 4000 м  слаб. снег  10/10 300 м 
[Ns]
-11.6 -13.9 83 -16  1014.6  -3.7  748  316           
21 19.01.17 210 (ЮЗ) 4000 м  слаб. снег  10/10 300 м 
[Ns]
-10.7 -12.6 86 -15  1010.5  -4  745  314           
00 20.01.17 210 (ЮЗ) 4000 м  слаб. снег  10/10 300 м 
[Ns]
-9.2 -11.3 85 -13  1006.4  -3.9  742  311           
03 20.01.17 200 (Ю) 4000 м  слаб. снег  10/10 300 м 
[Ns]
-8.7 -10.2 89 -12  1002.5  -3.8  739  309  -12.2    0.9  55  равномерный
сухой снег
100% 
06 20.01.17 210 (ЮЗ) 4000 м  слаб. снег  10/10 300 м 
[Ns]
-8 -9.8 87 -11  999.5  -2.9  737  307           
09 20.01.17 200 (Ю) 2000 м  снег{морось} [диам. гололёда 1 мм]  10/10 300 м 
[Ns]
-7.5 -9.5 86 -10  996  -3.4  735  305           
12 20.01.17 210 (ЮЗ) 2000 м  снег{морось} [диам. гололёда ]  10/10 300 м 
[Ns]
-6.6 -8.3 88 -10  992.9  -3  732  303           
15 20.01.17 240 (ЮЗ) 7{10}  4000 м  слаб. снег  10/10 300 м 
[Ns]
-4.9 -6.7 87 -10  990.9  -1.9  731  301    -4.9     
18 20.01.17 250 (З) 5{10}  20000 м  позёмок{снег}  3/3 2000 м средняя 
[Ac und]
-4.8 -6.8 86 -9  991.3  0.4  731  301           
21 20.01.17 240 (ЮЗ) 7-10{11}  4000 м  слаб. снег  10/10 300 м 
[Ns]
-5.2 -7.6 83 -10  991.3  731  301           
00 21.01.17 250 (З) 6{11}  4000 м  слаб. снег  10/10 300 м 
[Ns]
-5.7 -7.4 88 -10  992.1  0.8  732  302           
03 21.01.17 260 (З) 4{13}  4000 м  слаб. снег  10/10 300 м 
[Ns]
-6.6 -10.7 73 -10  993.4  1.2  733  304  -6.7    0.8  57  равномерный
сухой снег
100% 
Время (UTC), дата Ветер
(°,м/с) 
Видим.   Явления Облачность Т
(°С)
Тd
(°С)
f(%) Тe
(°С)
Pmin
(гПа)
dP
(гПа)
Po
(мм)
O2
(г/м3)
Тmin Tmax R s Состояние
почвы

Для получения пояснительной информации подведите курсор к названию столбца.

ПОГОДА в Нозовке - архив

Всё, что Вы хотите узнать о погоде в Нозовке - удобно и подробно!

Выберите нужную дату (начиная с 1 января 2015* года) и нажмите кнопку "Найти".
Будут отображены архивные сводки погоды по пункту Нозовка, начиная с указанной даты.


Отображать данные в формате CSV (для использования в таблицах Excel)


Внимание! Наш архив погоды предназначен исключительно для личного некоммерческого использования в познавательных целях. Если Вам необходимы официальные справки о состоянии погоды (для производственных, юридических, коммерческих и т.п. целей), обращайтесь в органы Росгидромета.

*Примечание: данная дата относится к архиву по метеостанциям СССР (Россия, СНГ, Балтия).
Архив по метеостанциям Зарубежной Европы и Азии (кроме Китая) хранится 10 дней, по другим регионам земного шара (Китай, Африка, Америка, Австралия, Океания) - 1 день.

Нозовка - район местоположения метеостанции


Название, широта, долгота, высота метеостанции:
Нозовка 57.1°ш. 54.8°д. 131 м над ур. моря [Российская Федерация]

Дополнительная информация

В oтличие oт бoльшинства пoгoдных сайтoв мы публикуем пoдрoбную метеoинфoрмацию в детальнoм прoфессиoнальнoм фoрмате.

Характеристики температуры и влажнoсти вoздуха измеряются на высoте 2 м в тени вдали oт зданий и деревьев.
Скoрoсть ветра измеряется на высoте 10 м (на урoвне рoста челoвека скoрoсть ветра ниже в 1.5-2 раза). Если метеoстанция нахoдится в гoрoде или в лесу, тo скoрoсть ветра занижена на 2-4 м/с пo сравнению с oткрытым местoм. Скoрoсть ветра над акватoриями крупных рек и oзёр, а также на вершинах хoлмoв на 2-5 м/с выше, чем в oбычных услoвиях.
Атмoсфернoе давление в разных тoчках местнoсти мoжет значительнo oтличаться oт давления на метеoстанции, в зависимoсти oт услoвий рельефа (при пoдъёме на 10 м давление пoнижается примернo на 1 мм рт.ст.).